Zurück zum Katalog

COSMOS 2130

AktivMilitärLEO
NORAD 21105·PAYLOAD·🇷🇺 Russia

Gestartet Feb 12, 1991 von Plesetsk Cosmodrome

Loading…

Nächste Überflüge (nächste 24 Stunden)

TLE

AktuellSource: Space-Track

Epoche: Sep 14, 2026, 13:48 UTC

1 21105U 91009F   26257.57553422  .00000005  00000-0  12276-3 0  9999
2 21105  74.0328 328.0278 0042861 106.5068 321.1160 12.57182168633199

Verfolge COSMOS 2130 in Echtzeit mit AllMySat

Download on the App Store